Weather History for Provincetown, MA

Change the Weather History Date:

Friday, June 22, 2012

  Actual Average Record
Temperature  
Mean Temperature 80 °F -  
Max Temperature 91 °F 72 °F 91 °F (2012)
Min Temperature 68 °F 58 °F 51 °F (2014)
Cooling Degree Days 14    
Growing Degree Days 30 (Base 50)    
Moisture  
Dew Point 66 °F    
Average Humidity 65    
Maximum Humidity 94    
Minimum Humidity 41    
Precipitation  
Precipitation 0.00 in - - ()
Sea Level Pressure  
Sea Level Pressure 29.73 in    
Wind  
Wind Speed 8 mph (West)    
Max Wind Speed 18 mph    
Max Gust Speed 26 mph    
Visibility 10 miles    
Events      
Averages and records for this station are not official NWS values.
T = Trace of Precipitation, MM = Missing Value Source: NWS Daily Summary

Daily Weather History Graph

Daily Weather History Graph

Search for Another Location

Airport:

Trip Planner

Search our weather history database for the weather conditions in past years. The results will help you decide how hot, cold, wet, or windy it might be!

Date:

Astronomy

Jun. 22, 2012 Rise Set
Actual Time 5:05 AM EDT 8:20 PM EDT
Civil Twilight 4:30 AM EDT 8:55 PM EDT
Nautical Twilight 3:46 AM EDT 9:39 PM EDT
Astronomical Twilight 2:52 AM EDT 10:33 PM EDT
Moon 8:04 AM EDT (6/22) 10:12 PM EDT (6/22)
Length of Visible Light 16h 24m
Length of Day
15h 15m
Waxing Crescent, 9% of the Moon is Illuminated
Jun 22
Waxing Crescent
Jun 26
First Quarter
Jul 3
Full
Jul 10
Last Quarter
Jul 19
New

Hourly Weather History & Observations

Time (EDT) Temp. Heat Index Dew Point Humidity Pressure Visibility Wind Dir Wind Speed Gust Speed Precip Events Conditions
12:35 AM 71.6 °F - 66.2 °F 83% 29.74 in 10.0 mi WSW 8.1 mph - N/A   Clear
12:55 AM 71.6 °F - 68.0 °F 88% 29.73 in 10.0 mi WSW 6.9 mph - N/A   Clear
1:15 AM 71.6 °F - 68.0 °F 88% 29.73 in 10.0 mi SW 4.6 mph - N/A   Clear
1:35 AM 71.6 °F - 66.2 °F 83% 29.73 in 10.0 mi WSW 5.8 mph - N/A   Clear
2:15 AM 75.2 °F - 68.0 °F 78% 29.73 in 10.0 mi West 10.4 mph - N/A   Clear
2:35 AM 71.6 °F - 66.2 °F 83% 29.73 in 10.0 mi SW 5.8 mph - N/A   Clear
3:15 AM 71.6 °F - 68.0 °F 88% 29.73 in 10.0 mi WSW 6.9 mph - N/A   Clear
3:35 AM 69.8 °F - 66.2 °F 88% 29.73 in 10.0 mi WSW 6.9 mph - N/A   Clear
3:55 AM 71.6 °F - 66.2 °F 83% 29.72 in 10.0 mi West 8.1 mph - N/A   Partly Cloudy
4:35 AM 73.4 °F - 66.2 °F 78% 29.72 in 10.0 mi West 8.1 mph - N/A   Clear
4:55 AM 73.4 °F - 66.2 °F 78% 29.72 in 10.0 mi West 8.1 mph - N/A   Clear
5:35 AM 71.6 °F - 66.2 °F 83% 29.73 in 10.0 mi West 8.1 mph - N/A   Clear
5:55 AM 73.4 °F - 66.2 °F 78% 29.73 in 10.0 mi West 6.9 mph - N/A   Clear
6:15 AM 73.4 °F - 66.2 °F 78% 29.74 in 10.0 mi West 6.9 mph - N/A   Clear
6:55 AM 75.2 °F - 66.2 °F 73% 29.75 in 10.0 mi West 8.1 mph - N/A   Clear
7:15 AM 77.0 °F - 66.2 °F 69% 29.75 in 10.0 mi West 8.1 mph - N/A   Clear
7:35 AM 78.8 °F - 68.0 °F 69% 29.75 in 10.0 mi West 6.9 mph - N/A   Clear
7:55 AM 80.6 °F 82.7 °F 66.2 °F 61% 29.75 in 10.0 mi West 8.1 mph - N/A   Clear
8:15 AM 80.6 °F 83.2 °F 68.0 °F 65% 29.75 in 10.0 mi West 8.1 mph - N/A   Clear
8:35 AM 80.6 °F 82.7 °F 66.2 °F 61% 29.75 in 10.0 mi West 9.2 mph - N/A   Clear
8:55 AM 82.4 °F 84.6 °F 66.2 °F 58% 29.75 in 10.0 mi West 8.1 mph - N/A   Clear
9:35 AM 84.2 °F 86.6 °F 66.2 °F 55% 29.74 in 10.0 mi West 9.2 mph - N/A   Clear
9:55 AM 84.2 °F 86.6 °F 66.2 °F 55% 29.74 in 10.0 mi WNW 8.1 mph - N/A   Clear
10:15 AM 84.2 °F 86.6 °F 66.2 °F 55% 29.75 in 10.0 mi WNW 9.2 mph - N/A   Clear
10:35 AM 84.2 °F 86.6 °F 66.2 °F 55% 29.75 in 10.0 mi WNW 11.5 mph - N/A   Clear
11:15 AM 86.0 °F 88.2 °F 66.2 °F 51% 29.75 in 10.0 mi NW 5.8 mph - N/A   Clear
11:55 AM 87.8 °F 90.4 °F 66.2 °F 49% 29.75 in 10.0 mi WNW 9.2 mph - N/A   Clear
12:15 PM 87.8 °F 90.4 °F 66.2 °F 49% 29.75 in 10.0 mi WNW 8.1 mph - N/A   Clear
12:35 PM 87.8 °F 90.4 °F 66.2 °F 49% 29.75 in 10.0 mi WNW 6.9 mph - N/A   Clear
12:55 PM 89.6 °F 92.2 °F 66.2 °F 46% 29.75 in 10.0 mi NW 4.6 mph - N/A   Clear
1:15 PM 89.6 °F 92.2 °F 66.2 °F 46% 29.74 in 10.0 mi NNW 5.8 mph - N/A   Clear
1:35 PM 89.6 °F 91.1 °F 64.4 °F 43% 29.75 in 10.0 mi North 4.6 mph - N/A   Clear
1:55 PM 89.6 °F 91.1 °F 64.4 °F 43% 29.74 in 10.0 mi North 3.5 mph - N/A   Clear
2:35 PM 91.4 °F 93.2 °F 64.4 °F 41% 29.73 in 10.0 mi North 5.8 mph - N/A   Clear
2:55 PM 91.4 °F 93.2 °F 64.4 °F 41% 29.73 in 10.0 mi North 5.8 mph - N/A   Clear
3:15 PM 91.4 °F 93.2 °F 64.4 °F 41% 29.72 in 10.0 mi Calm Calm - N/A   Clear
3:35 PM 91.4 °F 93.2 °F 64.4 °F 41% 29.71 in 10.0 mi SSW 9.2 mph - N/A   Clear
3:55 PM 91.4 °F 93.2 °F 64.4 °F 41% 29.71 in 10.0 mi South 8.1 mph - N/A   Clear
4:15 PM 91.4 °F 93.2 °F 64.4 °F 41% 29.70 in 10.0 mi SSW 8.1 mph - N/A   Clear
4:35 PM 91.4 °F 93.2 °F 64.4 °F 41% 29.70 in 10.0 mi SSW 11.5 mph - N/A   Clear
4:55 PM 89.6 °F 91.1 °F 64.4 °F 43% 29.70 in 10.0 mi South 10.4 mph - N/A   Clear
5:15 PM 89.6 °F 91.1 °F 64.4 °F 43% 29.70 in 10.0 mi South 11.5 mph - N/A   Clear
5:35 PM 86.0 °F 87.3 °F 64.4 °F 48% 29.69 in 9.0 mi South 9.2 mph - N/A   Clear
5:55 PM 84.2 °F 86.6 °F 66.2 °F 55% 29.71 in 10.0 mi South 10.4 mph - N/A   Clear
6:15 PM 80.6 °F 83.2 °F 68.0 °F 65% 29.71 in 10.0 mi South 6.9 mph - N/A   Clear
6:35 PM 80.6 °F 83.9 °F 69.8 °F 70% 29.71 in 10.0 mi SSW 8.1 mph - N/A   Clear
6:55 PM 80.6 °F 82.7 °F 66.2 °F 61% 29.71 in 10.0 mi SSW 11.5 mph - N/A   Clear
7:15 PM 78.8 °F - 64.4 °F 61% 29.73 in 10.0 mi SW 15.0 mph 19.6 mph N/A   Clear
7:55 PM 73.4 °F - 64.4 °F 73% 29.75 in 10.0 mi West 17.3 mph 26.5 mph N/A   Clear
8:15 PM 71.6 °F - 64.4 °F 78% 29.74 in 10.0 mi West 18.4 mph 23.0 mph N/A   Clear
8:55 PM 73.4 °F - 64.4 °F 73% 29.74 in 10.0 mi West 12.7 mph 21.9 mph N/A   Mostly Cloudy
9:15 PM 71.6 °F - 64.4 °F 78% 29.74 in 10.0 mi WNW 16.1 mph - N/A   Mostly Cloudy
9:35 PM 73.4 °F - 64.4 °F 73% 29.74 in 10.0 mi WNW 11.5 mph - N/A   Overcast
9:55 PM 69.8 °F - 64.4 °F 83% 29.75 in 10.0 mi WNW 4.6 mph - N/A   Overcast
10:15 PM 71.6 °F - 66.2 °F 83% 29.75 in 10.0 mi Calm Calm - N/A   Mostly Cloudy
10:35 PM 71.6 °F - 66.2 °F 83% 29.76 in 10.0 mi WSW 4.6 mph - N/A   Mostly Cloudy
10:55 PM 71.6 °F - 66.2 °F 83% 29.76 in 10.0 mi WNW 4.6 mph - N/A   Mostly Cloudy
11:35 PM 68.0 °F - 66.2 °F 94% 29.76 in 9.0 mi NNW 3.5 mph - N/A   Clear
11:55 PM 69.8 °F - 66.2 °F 88% 29.76 in 10.0 mi WNW 4.6 mph - N/A   Clear